Location: Newark
(45.2862°N, 9.8850°E)
Time: 22:46:04
(UTC+00:00)

N. Korean satellite - Pass Details

Date: 08 December 2019
Orbit: 454 x 507 km, 97.2° (Epoch: 21 January)

Event Time Altitude Azimuth Distance (km) Brightness Sun altitude
Rises 16:27:47 0° 172° (S) 2,600 10.5 -8.6°
Reaches altitude 10° 16:29:52 10° 175° (S) 1,720 9.6 -8.9°
Maximum altitude 16:33:34 68° 259° (W) 549 7.1 -9.5°
Drops below altitude 10° 16:37:17 10° 343° (NNW) 1,726 9.3 -10.1°
Sets 16:39:23 0° 346° (NNW) 2,610 10.2 -10.5°
